Date String (YYYY-MM-DD hh:mm:ss) UTC,Instrument flags,Ambient pressure (hPa),Sample flow (lpm),Bypass flow (lpm),Sample temperature (°C),Ambient temperature (°C),ASC tube jacket temperature (°C),LED temperature (°C),Box temperature (°C),Sample RH (%),Span deviation,Mass concentration (μg/m³),Mass concentration (μg/m³),Mass concentration (μg/m³)
DateTimeUTC,F1_M11,P_M11,Q1_M11,Q2_M11,T1_M11,T2_M11,T3_M11,T4_M11,T5_M11,U1_M11,ZSPAN_M11,X0_M11,X2_M11,X1_M11
2023-04-04 16:00:00,,0814.5,4.99,0.00,23.0,22.6,00.0,31.3,24.7,13.0,0000.0,0002.60,0000.87,0000.68
2023-04-04 16:01:00,,0814.5,4.99,0.00,23.0,22.2,00.0,31.3,24.5,12.9,0000.0,0002.56,0000.86,0000.68
2023-04-04 16:02:00,,0814.5,5.00,0.00,23.0,21.9,00.0,31.3,24.4,12.9,0000.0,0002.32,0000.88,0000.67
2023-04-04 16:03:00,,0814.5,5.01,0.00,22.9,21.7,00.0,31.3,24.3,12.8,0000.0,0002.01,0000.87,0000.67
2023-04-04 16:04:00,,0814.5,5.00,0.00,22.9,21.4,00.0,31.3,24.2,12.7,0000.0,0002.03,0000.90,0000.67
2023-04-04 16:05:00,,0814.5,5.00,0.00,22.8,21.2,00.0,31.3,24.2,12.7,0000.0,0001.98,0000.88,0000.66
2023-04-04 16:06:00,,0814.6,4.99,0.00,22.8,21.4,00.0,31.2,24.4,12.6,0000.0,0001.57,0000.85,0000.65
2023-04-04 16:07:00,,0814.7,5.02,0.00,23.0,22.4,00.0,31.2,24.8,12.6,0000.0,0001.16,0000.83,0000.65
2023-04-04 16:08:00,,0814.7,5.00,0.00,23.1,23.4,00.0,31.2,25.1,12.5,0000.0,0001.16,0000.82,0000.65
2023-04-04 16:09:00,,0814.8,4.98,0.00,23.2,23.4,00.0,31.3,25.0,12.5,0000.0,0001.17,0000.80,0000.65
2023-04-04 16:10:00,,0814.8,5.02,0.00,23.1,23.1,00.0,31.3,24.8,12.5,0000.0,0001.20,0000.81,0000.66
2023-04-04 16:11:00,,0814.7,5.00,0.00,23.1,22.7,00.0,31.4,24.7,12.6,0000.0,0001.19,0000.80,0000.66
2023-04-04 16:12:00,,0814.7,4.99,0.00,23.0,22.3,00.0,31.4,24.5,12.6,0000.0,0001.25,0000.82,0000.67
2023-04-04 16:13:00,,0814.7,4.99,0.00,23.0,21.9,00.0,31.4,24.4,12.6,0000.0,0001.31,0000.82,0000.68
2023-04-04 16:14:00,,0814.8,5.00,0.00,23.0,21.5,00.0,31.4,24.4,12.6,0000.0,0001.31,0000.83,0000.69
2023-04-04 16:15:00,,0814.8,5.00,0.00,22.9,21.3,00.0,31.4,24.3,12.7,0000.0,0001.25,0000.83,0000.71
2023-04-04 16:16:00,,0814.8,5.00,0.00,22.8,21.1,00.0,31.3,24.3,12.8,0000.0,0001.78,0000.82,0000.72
2023-04-04 16:17:00,,0814.8,5.01,0.00,22.8,21.2,00.0,31.3,24.3,12.6,0000.0,0002.63,0000.83,0000.73
2023-04-04 16:18:00,,0814.8,5.01,0.00,22.9,22.2,00.0,31.2,24.7,12.4,0000.0,0002.60,0000.83,0000.74
2023-04-04 16:19:00,,0814.9,4.99,0.00,23.1,23.2,00.0,31.2,25.0,12.2,0000.0,0002.75,0000.84,0000.74
2023-04-04 16:20:00,,0814.9,4.99,0.00,23.1,23.4,00.0,31.3,25.0,12.2,0000.0,0002.72,0000.86,0000.74
2023-04-04 16:21:00,,0814.9,5.00,0.00,23.1,23.1,00.0,31.3,24.8,12.2,0000.0,0002.87,0000.90,0000.75
2023-04-04 16:22:00,,0814.9,5.00,0.00,23.1,22.7,00.0,31.4,24.7,12.3,0000.0,0002.91,0000.93,0000.76
2023-04-04 16:23:00,,0814.9,4.99,0.00,23.0,22.3,00.0,31.4,24.5,12.4,0000.0,0002.90,0000.93,0000.77
2023-04-04 16:24:00,,0814.9,5.01,0.00,23.0,22.0,00.0,31.4,24.5,12.5,0000.0,0002.86,0000.95,0000.77
2023-04-04 16:25:00,,0814.9,5.01,0.00,22.9,21.7,00.0,31.4,24.3,12.5,0000.0,0002.85,0000.94,0000.77
2023-04-04 16:26:00,,0814.9,5.00,0.00,22.9,21.3,00.0,31.3,24.3,12.5,0000.0,0002.82,0000.93,0000.76
2023-04-04 16:27:00,,0814.9,4.99,0.00,22.8,21.1,00.0,31.3,24.2,12.6,0000.0,0002.26,0000.95,0000.77
2023-04-04 16:28:00,,0814.9,5.00,0.00,22.8,21.0,00.0,31.3,24.2,12.6,0000.0,0001.47,0000.95,0000.77
2023-04-04 16:29:00,,0814.9,5.02,0.00,22.9,21.9,00.0,31.2,24.6,12.5,0000.0,0001.46,0000.95,0000.78
2023-04-04 16:30:00,,0814.9,5.00,0.00,23.0,23.0,00.0,31.2,25.0,12.5,0000.0,0001.42,0000.98,0000.81
2023-04-04 16:31:00,,0814.9,4.99,0.00,23.2,23.5,00.0,31.3,25.0,12.4,0000.0,0001.41,0001.00,0000.82
2023-04-04 16:32:00,,0814.9,5.00,0.00,23.1,23.2,00.0,31.3,24.9,12.4,0000.0,0001.36,0000.99,0000.83
2023-04-04 16:33:00,,0814.9,5.00,0.00,23.1,22.8,00.0,31.4,24.7,12.4,0000.0,0001.50,0000.98,0000.84
2023-04-04 16:34:00,,0814.9,5.01,0.00,23.0,22.4,00.0,31.4,24.6,12.5,0000.0,0001.62,0000.98,0000.85
2023-04-04 16:35:00,,0814.9,5.00,0.00,23.0,22.1,00.0,31.4,24.4,12.5,0000.0,0001.59,0000.98,0000.87
2023-04-04 16:36:00,,0814.9,5.00,0.00,22.9,21.7,00.0,31.4,24.4,12.5,0000.0,0001.60,0001.00,0000.89
2023-04-04 16:37:00,,0814.9,5.01,0.00,22.9,21.5,00.0,31.4,24.3,12.5,0000.0,0001.63,0001.03,0000.92
2023-04-04 16:38:00,,0814.9,5.00,0.00,22.8,21.3,00.0,31.3,24.3,12.5,0000.0,0001.67,0001.07,0000.94
2023-04-04 16:39:00,,0814.9,5.01,0.00,22.8,21.5,00.0,31.3,24.4,12.6,0000.0,0001.70,0001.09,0000.96
2023-04-04 16:40:00,,0815.0,5.00,0.00,22.9,22.4,00.0,31.2,24.8,12.5,0000.0,0001.77,0001.14,0001.00
2023-04-04 16:41:00,,0815.0,5.00,0.00,23.1,23.4,00.0,31.3,25.1,12.5,0000.0,0001.78,0001.16,0001.02
2023-04-04 16:42:00,,0815.0,5.01,0.00,23.2,23.5,00.0,31.3,25.0,12.4,0000.0,0001.91,0001.21,0001.04
2023-04-04 16:43:00,,0815.0,5.00,0.00,23.1,23.1,00.0,31.4,24.9,12.3,0000.0,0001.97,0001.25,0001.08
2023-04-04 16:44:00,,0815.0,4.99,0.00,23.1,22.8,00.0,31.4,24.7,12.3,0000.0,0001.96,0001.32,0001.11
2023-04-04 16:45:00,,0815.0,5.01,0.00,23.1,22.4,00.0,31.4,24.6,12.3,0000.0,0001.94,0001.35,0001.14
2023-04-04 16:46:00,,0815.1,5.00,0.00,23.0,22.0,00.0,31.4,24.5,12.3,0000.0,0002.45,0001.40,0001.18
2023-04-04 16:47:00,,0815.0,4.99,0.00,23.0,21.7,00.0,31.4,24.4,12.4,0000.0,0002.95,0001.45,0001.21
2023-04-04 16:48:00,,0815.1,5.00,0.00,22.9,21.5,00.0,31.4,24.3,12.4,0000.0,0003.10,0001.51,0001.24
2023-04-04 16:49:00,,0815.1,5.00,0.00,22.9,21.2,00.0,31.4,24.2,12.3,0000.0,0003.11,0001.52,0001.25
2023-04-04 16:50:00,,0815.1,5.00,0.00,22.8,21.2,00.0,31.3,24.3,12.3,0000.0,0003.24,0001.55,0001.26
2023-04-04 16:51:00,,0815.2,5.01,0.00,22.9,22.2,00.0,31.3,24.7,12.3,0000.0,0003.32,0001.56,0001.26
2023-04-04 16:52:00,,0815.3,4.99,0.00,23.1,23.2,00.0,31.3,25.1,12.2,0000.0,0003.36,0001.56,0001.25
2023-04-04 16:53:00,,0815.3,5.00,0.00,23.2,23.6,00.0,31.3,25.1,12.2,0000.0,0003.26,0001.51,0001.25
2023-04-04 16:54:00,,0815.2,4.99,0.00,23.2,23.3,00.0,31.4,24.9,12.3,0000.0,0003.12,0001.47,0001.23
2023-04-04 16:55:00,,0815.2,4.99,0.00,23.1,22.8,00.0,31.4,24.8,12.3,0000.0,0003.01,0001.42,0001.20
2023-04-04 16:56:00,,0815.2,5.01,0.00,23.1,22.4,00.0,31.4,24.6,12.3,0000.0,0002.80,0001.39,0001.17
2023-04-04 16:57:00,,0815.2,5.00,0.00,23.0,22.1,00.0,31.4,24.5,12.3,0000.0,0002.80,0001.38,0001.14
2023-04-04 16:58:00,,0815.1,5.00,0.00,23.0,21.8,00.0,31.4,24.4,12.4,0000.0,0002.10,0001.37,0001.10
2023-04-04 16:59:00,,0815.1,5.00,0.00,23.0,21.5,00.0,31.4,24.3,12.3,0000.0,0002.08,0001.28,0001.05
